Location: Nelson
(41.2830°S, 173.2830°E)
Time: 05:21:12
(UTC+12:00)

Okean O Rocket - Pass Details

Date: 14 May 2021
Orbit: 622 x 645 km, 98.2° (Epoch: 16 June)

Event Time Altitude Azimuth Distance (km) Brightness Sun altitude
Exits shadow 19:06:04 33° 147° (SSE) 1,093 2.5 -20.1°
Maximum altitude 19:07:55 62° 79° (E) 734 1.6 -20.5°
Drops below altitude 10° 19:12:22 10° 357° (N) 2,048 4.3 -21.3°
Sets 19:14:35 0° 354° (N) 2,951 5.2 -21.7°
